This demonstration page uses our WeatherBlox Daily Observations layout. Learn more.

Left ArrowRight Arrow

Hourly Observations for February 22, 2017

Temp ( °F °C ) Dew Point ( °F °C ) Humidity (%) Winds ( mph kmh ) Pressure ( in mb ) Visibility ( mi km ) Precip ( " mm )
12:24 am 00:24 Cloudy with Mist and Fog 34 1 34 1 100 100 ENE 8 13 29.85 1011 3 5 0.00 0.00
12:44 am 00:44 Cloudy with Mist and Fog 34 1 34 1 100 100 ENE 7 11 29.85 1011 3 4 0.00 0.00
12:51 am 00:51 Cloudy with Mist and Fog 34 1 34 1 100 100 ENE 8 13 29.85 1011 3 5 0.00 0.00
12:53 am 00:53 Cloudy with Mist and Fog 33 0.6 33 0.6 100 100 ENE 8 13 29.83 1010 3 5 0.00 0.00
1:25 am 01:25 Cloudy with Light Snow 33 0.6 32 0 96 96 NE 7 11 29.85 1011 3 4 0.00 0.03
1:32 am 01:32 Cloudy with Light Snow 34 1 32 0 93 93 ENE 8 13 29.85 1011 2 3 0.00 0.00
1:53 am 01:53 Cloudy with Light Snow 32 0 32 0 100 100 E 8 13 29.85 1011 3 4 0.00 0.03
2:03 am 02:03 Cloudy with Light Snow 32 0 32 0 100 100 E 8 13 29.88 1012 3 5 0.00 0.00
2:13 am 02:13 Cloudy with Mist and Fog 32 0 32 0 100 100 E 8 13 29.88 1012 4 6 0.00 0.03
2:22 am 02:22 Cloudy with Light Snow 32 0 32 0 100 100 E 7 11 29.88 1012 4 6 0.00 0.00
2:30 am 02:30 Cloudy with Light Snow 32 0 32 0 100 100 ENE 6 9 29.88 1012 3 5 0.00 0.00
2:53 am 02:53 Cloudy with Light Snow 32 0 32 0 100 100 ENE 8 13 29.87 1012 3 5 0.00 0.03
3:13 am 03:13 Cloudy with Light Snow 32 0 31 -0.6 96 96 ENE 7 11 29.91 1013 3 4 0.00 0.03
3:36 am 03:36 Cloudy with Light Snow 32 0 30 -1 93 93 ENE 6 9 29.91 1013 3 5 0.00 0.00
3:46 am 03:46 Cloudy with Light Snow 32 0 30 -1 93 93 ENE 6 9 29.91 1013 2 3 0.00 0.00
3:53 am 03:53 Cloudy with Light Snow 32 0 32 0 100 100 ENE 5 7 29.90 1013 2 3 0.01 0.25
4:06 am 04:06 Cloudy with Light Snow 32 0 32 0 100 100 ENE 5 7 29.91 1013 2 3 0.00 0.03
4:13 am 04:13 Cloudy with Light Snow 32 0 31 -0.6 96 96 ENE 5 7 29.94 1014 2 3 0.01 0.25
4:32 am 04:32 Cloudy with Light Snow 32 0 32 0 100 100 ENE 5 7 29.94 1014 1 2 0.00 0.00
4:53 am 04:53 Cloudy with Light Snow 32 0 31 -0.6 96 96 ENE 6 9 29.92 1013 2 2 0.03 0.76
5:03 am 05:03 Cloudy with Light Snow 32 0 30 -1 93 93 ENE 5 7 29.94 1014 2 3 0.00 0.00
5:09 am 05:09 Cloudy with Light Snow 31 -0.6 31 -0.6 100 100 ENE 5 7 29.94 1014 3 5 0.00 0.03
5:53 am 05:53 Cloudy 31 -0.6 30 -1.1 96 96 E 7 11 29.93 1014 8 13 0.00 0.03
6:04 am 06:04 Cloudy 30 -1 30 -1 100 100 E 6 9 30.00 1016 9 14 0.00 0.00
6:13 am 06:13 Cloudy 31 -0.6 31 -0.6 100 100 E 5 7 30.00 1016 9 14 0.00 0.00
6:53 am 06:53 Cloudy 31 -0.6 30 -1.1 96 96 ENE 6 9 29.95 1014 8 13 0.00 0.00
7:53 am 07:53 Cloudy with Light Snow 31 -0.6 30 -1.1 96 96 ENE 9 15 29.97 1015 2 3 0.00 0.03
8:03 am 08:03 Cloudy with Light Snow 30 -1 30 -1 100 100 ENE 9 15 30.03 1017 2 3 0.00 0.00
8:11 am 08:11 Cloudy with Light Snow 31 -0.6 30 -1.1 96 96 E 9 15 30.03 1017 3 4 0.00 0.03
8:18 am 08:18 Cloudy with Light Snow 30 -1 30 -1 100 100 E 8 13 30.03 1017 3 5 0.00 0.00
8:53 am 08:53 Cloudy with Light Snow 31 -0.6 31 -0.6 100 100 ENE 7 11 29.97 1015 3 5 0.00 0.03
9:19 am 09:19 Cloudy with Light Snow 32 0 31 -0.6 96 96 E 6 9 30.00 1016 2 3 0.00 0.03
9:32 am 09:32 Cloudy with Light Snow 32 0 30 -1 93 93 E 6 9 30.00 1016 2 3 0.00 0.00
9:53 am 09:53 Cloudy with Light Snow 32 0 31 -0.6 96 96 E 5 7 29.99 1016 2 3 0.00 0.03
10:02 am 10:02 Cloudy with Light Snow 32 0 30 -1 93 93 E 5 7 30.00 1016 1 2 0.00 0.00
10:06 am 10:06 Cloudy with Light Snow 32 0 30 -1 93 93 E 5 7 30.00 1016 2 2 0.00 0.00
10:17 am 10:17 Cloudy with Light Snow 32 0 31 -0.6 96 96 E 6 9 30.00 1016 2 3 0.00 0.03
10:26 am 10:26 Cloudy with Light Snow 32 0 30 -1 93 93 E 6 9 30.06 1018 1 2 0.00 0.00
10:30 am 10:30 Cloudy with Light Snow 32 0 30 -1 93 93 ENE 6 9 30.06 1018 2 2 0.00 0.00
10:37 am 10:37 Cloudy with Light Snow 32 0 31 -0.6 96 96 ENE 6 9 30.06 1018 3 5 0.01 0.25
10:53 am 10:53 Cloudy with Light Snow 33 0.6 32 0 96 96 ENE 6 9 29.99 1016 5 8 0.01 0.25
11:15 am 11:15 Cloudy with Light Snow 33 0.6 32 0 96 96 ENE 6 9 30.03 1017 3 4 0.00 0.03
11:23 am 11:23 Cloudy with Light Snow 34 1.1 32 0 92 92 ENE 5 7 30.03 1017 5 8 0.00 0.03
11:45 am 11:45 Cloudy with Light Snow 34 1.1 32 0 92 92 ENE 8 13 30.03 1017 6 10 0.00 0.03
11:53 am 11:53 Cloudy with Light Snow 34 1.1 32 0 92 92 ENE 9 15 30.00 1016 3 5 0.00 0.03
12:00 pm 12:00 Cloudy with Light Snow 34 1 32 0 93 93 ENE 9 15 30.03 1017 7 11 0.00 0.00
12:53 pm 12:53 Cloudy 36 2.2 32 0 86 86 E 12 19 29.98 1015 10 16 0.00 0.03
1:53 pm 13:53 Cloudy 37 2.8 28 -2.2 70 70 E 13 20 29.98 1015 10 16 0.00 0.00
2:53 pm 14:53 Cloudy 37 2.8 28 -2.2 70 70 E 9 15 29.99 1016 10 16 0.00 0.00
3:53 pm 15:53 Cloudy 36 2.2 28 -2.2 73 73 ENE 13 20 30.01 1016 10 16 0.00 0.00
4:53 pm 16:53 Cloudy 35 1.7 28 -2.2 76 76 E 12 19 30.01 1016 10 16 0.00 0.00
5:53 pm 17:53 Cloudy 34 1.1 28 -2.2 79 79 E 6 9 30.03 1017 10 16 0.00 0.00
6:26 pm 18:26 Cloudy with Light Snow 34 1 28 -2 81 81 ESE 7 11 30.06 1018 6 10 0.00 0.00
6:37 pm 18:37 Cloudy with Light Snow 32 0 29 -1.7 88 88 ESE 6 9 30.09 1019 2 3 0.00 0.03
6:53 pm 18:53 Cloudy with Light Snow 32 0 29 -1.7 88 88 E 5 7 30.05 1018 2 2 0.01 0.25
7:39 pm 19:39 Cloudy with Light Snow 31 -0.6 30 -1.1 96 96 Calm 30.09 1019 1 2 0.01 0.25
7:53 pm 19:53 Cloudy with Light Snow 31 -0.6 30 -1.1 96 96 ENE 3 6 30.05 1018 1 2 0.01 0.25
8:00 pm 20:00 Cloudy with Light Snow 30 -1 30 -1 100 100 E 5 7 30.09 1019 2 3 0.00 0.00
8:10 pm 20:10 Cloudy with Light Snow 30 -1 28 -2 93 93 E 6 9 30.09 1019 3 4 0.00 0.00
8:12 pm 20:12 Cloudy with Light Snow 30 -1 28 -2 93 93 ENE 6 9 30.09 1019 3 5 0.00 0.00
8:53 pm 20:53 Cloudy with Light Snow 30 -1.1 29 -1.7 96 96 NE 6 9 30.05 1018 5 8 0.01 0.25
9:35 pm 21:35 Cloudy with Light Snow 30 -1.1 29 -1.7 96 96 NNE 7 11 30.09 1019 3 5 0.00 0.03
9:53 pm 21:53 Cloudy with Light Snow 30 -1.1 29 -1.7 96 96 NNE 7 11 30.06 1018 2 3 0.00 0.03
10:09 pm 22:09 Cloudy with Light Snow 30 -1.1 29 -1.7 96 96 NE 8 13 30.09 1019 1 2 0.00 0.03
10:53 pm 22:53 Cloudy with Light Snow 30 -1.1 29 -1.7 96 96 N 7 11 30.07 1018 3 4 0.01 0.25
11:10 pm 23:10 Cloudy with Light Snow 30 -1 28 -2 93 93 NNE 7 11 30.12 1020 2 3 0.00 0.00
11:26 pm 23:26 Cloudy with Light Snow 30 -1 28 -2 93 93 NNE 7 11 30.12 1020 1 2 0.00 0.00
11:33 pm 23:33 Cloudy with Light Snow 30 -1.1 29 -1.7 96 96 NNE 8 13 30.12 1020 1 2 0.02 0.51
11:42 pm 23:42 Cloudy with Light Snow 30 -1 28 -2 93 93 NNE 8 13 30.12 1020 2 2 0.00 0.00
11:53 pm 23:53 Cloudy with Light Snow 30 -1.1 29 -1.7 96 96 NE 8 13 30.07 1018 3 4 0.02 0.51

Powered by AerisWeather